Time,TemperatureF,DewpointF,PressureIn,WindDirection,WindDirectionDegrees,WindSpeedMPH,WindSpeedGustMPH,Humidity,HourlyPrecipIn,Conditions,Clouds,dailyrainin,SolarRadiationWatts/m^2,SoftwareType,DateUTC
2013-03-14 00:00:00,41.5,29.0,30.25,SSE,162,9.0,11.0,61,0.00,,,0.00,0,Wunderground v.1.15,2013-03-14 05:00:00,
2013-03-14 00:08:00,42.0,29.1,30.25,SSE,158,10.0,10.0,60,0.00,,,0.00,0,Wunderground v.1.15,2013-03-14 05:08:00,
2013-03-14 00:15:00,42.0,29.1,30.24,South,176,9.0,10.0,60,0.00,,,0.00,0,Wunderground v.1.15,2013-03-14 05:15:00,
2013-03-14 00:20:00,41.9,29.0,30.24,SSE,160,9.0,11.0,60,0.00,,,0.00,0,Wunderground v.1.15,2013-03-14 05:20:00,
2013-03-14 00:27:00,42.3,29.0,30.24,SSE,164,10.0,10.0,59,0.00,,,0.00,0,Wunderground v.1.15,2013-03-14 05:27:00,
2013-03-14 00:32:00,42.6,28.8,30.24,SSE,163,9.0,10.0,58,0.00,,,0.00,0,Wunderground v.1.15,2013-03-14 05:32:00,
2013-03-14 00:39:00,42.8,29.0,30.24,South,188,10.0,10.0,58,0.00,,,0.00,0,Wunderground v.1.15,2013-03-14 05:39:00,
2013-03-14 00:44:00,42.7,28.9,30.24,SSE,166,9.0,10.0,58,0.00,,,0.00,0,Wunderground v.1.15,2013-03-14 05:44:00,
2013-03-14 00:51:00,42.6,28.8,30.23,SSE,167,9.0,9.0,58,0.00,,,0.00,0,Wunderground v.1.15,2013-03-14 05:51:00,
2013-03-14 00:56:00,42.4,28.7,30.23,South,172,8.0,9.0,58,0.00,,,0.00,0,Wunderground v.1.15,2013-03-14 05:56:00,
2013-03-14 01:02:00,42.6,28.8,30.23,South,181,8.0,13.0,58,0.00,,,0.00,0,Wunderground v.1.15,2013-03-14 06:02:00,
2013-03-14 01:08:00,42.6,28.4,30.23,South,170,9.0,9.0,57,0.00,,,0.00,0,Wunderground v.1.15,2013-03-14 06:08:00,
2013-03-14 01:15:00,42.7,28.5,30.23,SSE,167,9.0,10.0,57,0.00,,,0.00,0,Wunderground v.1.15,2013-03-14 06:15:00,
2013-03-14 01:21:00,42.7,28.5,30.23,South,178,9.0,9.0,57,0.00,,,0.00,0,Wunderground v.1.15,2013-03-14 06:21:00,
2013-03-14 01:26:00,42.5,28.3,30.22,SSE,153,8.0,10.0,57,0.00,,,0.00,0,Wunderground v.1.15,2013-03-14 06:26:00,
2013-03-14 01:33:00,42.3,28.1,30.22,South,181,8.0,10.0,57,0.00,,,0.00,0,Wunderground v.1.15,2013-03-14 06:33:00,
2013-03-14 01:39:00,42.3,28.1,30.23,SSE,167,7.0,8.0,57,0.00,,,0.00,0,Wunderground v.1.15,2013-03-14 06:39:00,
2013-03-14 01:45:00,42.0,28.3,30.23,South,177,7.0,8.0,58,0.00,,,0.00,0,Wunderground v.1.15,2013-03-14 06:45:00,
2013-03-14 01:51:00,42.0,28.3,30.23,South,171,7.0,7.0,58,0.00,,,0.00,0,Wunderground v.1.15,2013-03-14 06:51:00,
2013-03-14 01:56:00,41.9,28.2,30.22,South,184,6.0,13.0,58,0.00,,,0.00,0,Wunderground v.1.15,2013-03-14 06:56:00,
2013-03-14 02:03:00,41.7,28.4,30.22,South,183,6.0,13.0,59,0.00,,,0.00,0,Wunderground v.1.15,2013-03-14 07:03:00,
2013-03-14 02:08:00,41.5,28.2,30.23,South,181,6.0,13.0,59,0.00,,,0.00,0,Wunderground v.1.15,2013-03-14 07:08:00,
2013-03-14 02:14:00,41.1,28.3,30.23,South,178,5.0,13.0,60,0.00,,,0.00,0,Wunderground v.1.15,2013-03-14 07:14:00,
2013-03-14 02:21:00,40.6,28.2,30.22,South,176,5.0,13.0,61,0.00,,,0.00,0,Wunderground v.1.15,2013-03-14 07:21:00,
2013-03-14 02:26:00,40.2,28.2,30.22,South,182,5.0,5.0,62,0.00,,,0.00,0,Wunderground v.1.15,2013-03-14 07:26:00,
2013-03-14 02:32:00,39.7,28.1,30.22,South,181,5.0,13.0,63,0.00,,,0.00,0,Wunderground v.1.15,2013-03-14 07:32:00,
2013-03-14 02:39:00,39.4,28.2,30.22,South,180,4.0,13.0,64,0.00,,,0.00,0,Wunderground v.1.15,2013-03-14 07:39:00,
2013-03-14 02:44:00,39.1,27.9,30.22,South,184,4.0,13.0,64,0.00,,,0.00,0,Wunderground v.1.15,2013-03-14 07:44:00,
2013-03-14 02:50:00,39.0,27.8,30.22,South,191,4.0,13.0,64,0.00,,,0.00,0,Wunderground v.1.15,2013-03-14 07:50:00,
2013-03-14 02:57:00,39.3,28.1,30.22,SSW,193,4.0,13.0,64,0.00,,,0.00,0,Wunderground v.1.15,2013-03-14 07:57:00,
2013-03-14 03:03:00,39.5,27.9,30.22,SSW,193,5.0,13.0,63,0.00,,,0.00,0,Wunderground v.1.15,2013-03-14 08:03:00,
2013-03-14 03:08:00,39.5,28.3,30.22,SSW,195,4.0,13.0,64,0.00,,,0.00,0,Wunderground v.1.15,2013-03-14 08:08:00,
2013-03-14 03:15:00,39.5,27.9,30.22,SSW,199,4.0,13.0,63,0.00,,,0.00,0,Wunderground v.1.15,2013-03-14 08:15:00,
2013-03-14 03:21:00,39.2,28.0,30.22,SSW,199,4.0,13.0,64,0.00,,,0.00,0,Wunderground v.1.15,2013-03-14 08:21:00,
2013-03-14 03:26:00,38.9,28.1,30.22,SSW,199,4.0,13.0,65,0.00,,,0.00,0,Wunderground v.1.15,2013-03-14 08:26:00,
2013-03-14 03:33:00,38.5,27.7,30.22,SSW,199,3.0,13.0,65,0.00,,,0.00,0,Wunderground v.1.15,2013-03-14 08:33:00,
2013-03-14 03:39:00,38.1,27.7,30.22,SSW,199,3.0,4.0,66,0.00,,,0.00,0,Wunderground v.1.15,2013-03-14 08:39:00,
2013-03-14 03:45:00,37.9,27.5,30.21,SSW,199,4.0,13.0,66,0.00,,,0.00,0,Wunderground v.1.15,2013-03-14 08:45:00,
2013-03-14 03:51:00,37.7,27.7,30.21,SSW,199,5.0,13.0,67,0.00,,,0.00,0,Wunderground v.1.15,2013-03-14 08:51:00,
2013-03-14 03:56:00,37.9,27.9,30.21,SSW,198,5.0,13.0,67,0.00,,,0.00,0,Wunderground v.1.15,2013-03-14 08:56:00,
2013-03-14 04:03:00,38.6,28.2,30.21,SSW,199,6.0,13.0,66,0.00,,,0.00,0,Wunderground v.1.15,2013-03-14 09:03:00,
2013-03-14 04:08:00,38.5,28.1,30.21,SSW,195,5.0,13.0,66,0.00,,,0.00,0,Wunderground v.1.15,2013-03-14 09:08:00,
2013-03-14 04:15:00,38.2,28.2,30.20,South,190,5.0,13.0,67,0.00,,,0.00,0,Wunderground v.1.15,2013-03-14 09:15:00,
2013-03-14 04:20:00,37.9,27.9,30.20,South,190,5.0,13.0,67,0.00,,,0.00,0,Wunderground v.1.15,2013-03-14 09:20:00,
2013-03-14 04:26:00,37.6,28.0,30.20,South,187,5.0,13.0,68,0.00,,,0.00,0,Wunderground v.1.15,2013-03-14 09:26:00,
2013-03-14 04:33:00,37.7,28.1,30.20,South,190,5.0,13.0,68,0.00,,,0.00,0,Wunderground v.1.15,2013-03-14 09:33:00,
2013-03-14 04:39:00,37.8,28.2,30.20,SSW,195,6.0,13.0,68,0.00,,,0.00,0,Wunderground v.1.15,2013-03-14 09:39:00,
2013-03-14 04:45:00,37.6,28.0,30.19,SSW,193,5.0,13.0,68,0.00,,,0.00,0,Wunderground v.1.15,2013-03-14 09:45:00,
2013-03-14 04:50:00,37.3,28.1,30.20,South,189,5.0,13.0,69,0.00,,,0.00,0,Wunderground v.1.15,2013-03-14 09:50:00,
2013-03-14 04:57:00,37.1,28.2,30.19,South,187,5.0,13.0,70,0.00,,,0.00,0,Wunderground v.1.15,2013-03-14 09:57:00,
2013-03-14 05:03:00,36.8,27.9,30.19,South,187,5.0,13.0,70,0.00,,,0.00,0,Wunderground v.1.15,2013-03-14 10:03:00,
2013-03-14 05:08:00,36.5,28.0,30.19,South,186,4.0,13.0,71,0.00,,,0.00,0,Wunderground v.1.15,2013-03-14 10:08:00,
2013-03-14 05:36:00,36.5,28.3,30.19,SSW,195,5.0,13.0,72,0.00,,,0.00,0,Wunderground v.1.15,2013-03-14 10:36:00,
2013-03-14 05:43:00,36.3,28.1,30.19,SSW,194,5.0,13.0,72,0.00,,,0.00,0,Wunderground v.1.15,2013-03-14 10:43:00,
2013-03-14 05:48:00,36.3,28.1,30.19,South,190,5.0,13.0,72,0.00,,,0.00,0,Wunderground v.1.15,2013-03-14 10:48:00,
2013-03-14 05:54:00,36.2,28.0,30.19,South,185,5.0,13.0,72,0.00,,,0.00,0,Wunderground v.1.15,2013-03-14 10:54:00,
2013-03-14 06:01:00,35.9,28.1,30.19,South,179,5.0,13.0,73,0.00,,,0.00,0,Wunderground v.1.15,2013-03-14 11:01:00,
2013-03-14 06:07:00,35.7,27.9,30.19,South,179,4.0,13.0,73,0.00,,,0.00,0,Wunderground v.1.15,2013-03-14 11:07:00,
2013-03-14 06:13:00,35.6,28.1,30.19,South,179,4.0,13.0,74,0.00,,,0.00,0,Wunderground v.1.15,2013-03-14 11:13:00,
2013-03-14 06:19:00,35.4,27.9,30.20,South,179,3.0,13.0,74,0.00,,,0.00,0,Wunderground v.1.15,2013-03-14 11:19:00,
2013-03-14 06:24:00,35.3,27.8,30.20,South,179,3.0,13.0,74,0.00,,,0.00,0,Wunderground v.1.15,2013-03-14 11:24:00,
2013-03-14 06:31:00,35.2,28.1,30.20,South,179,3.0,13.0,75,0.00,,,0.00,0,Wunderground v.1.15,2013-03-14 11:31:00,
2013-03-14 06:37:00,34.9,27.8,30.20,South,179,3.0,13.0,75,0.00,,,0.00,0,Wunderground v.1.15,2013-03-14 11:37:00,
2013-03-14 06:43:00,35.0,28.2,30.20,South,179,3.0,13.0,76,0.00,,,0.00,0,Wunderground v.1.15,2013-03-14 11:43:00,
2013-03-14 06:48:00,35.0,28.2,30.19,South,179,3.0,13.0,76,0.00,,,0.00,0,Wunderground v.1.15,2013-03-14 11:48:00,
2013-03-14 06:55:00,34.8,28.0,30.19,South,179,4.0,13.0,76,0.00,,,0.00,0,Wunderground v.1.15,2013-03-14 11:55:00,
2013-03-14 07:00:00,34.7,28.2,30.19,South,179,4.0,13.0,77,0.00,,,0.00,0,Wunderground v.1.15,2013-03-14 12:00:00,
2013-03-14 07:07:00,34.8,28.3,30.19,South,179,4.0,4.0,77,0.00,,,0.00,0,Wunderground v.1.15,2013-03-14 12:07:00,
2013-03-14 07:12:00,35.0,28.5,30.19,South,179,4.0,13.0,77,0.00,,,0.00,0,Wunderground v.1.15,2013-03-14 12:12:00,
2013-03-14 07:19:00,35.1,28.6,30.19,South,179,4.0,13.0,77,0.00,,,0.00,0,Wunderground v.1.15,2013-03-14 12:19:00,
2013-03-14 07:24:00,35.2,28.7,30.19,South,180,4.0,13.0,77,0.00,,,0.00,0,Wunderground v.1.15,2013-03-14 12:24:00,
2013-03-14 07:31:00,35.3,29.1,30.19,South,180,4.0,13.0,78,0.00,,,0.00,0,Wunderground v.1.15,2013-03-14 12:31:00,
2013-03-14 07:36:00,35.5,29.3,30.19,South,180,5.0,13.0,78,0.00,,,0.00,0,Wunderground v.1.15,2013-03-14 12:36:00,
2013-03-14 07:42:00,35.8,29.6,30.19,South,180,5.0,13.0,78,0.00,,,0.00,5,Wunderground v.1.15,2013-03-14 12:42:00,
2013-03-14 07:49:00,36.1,29.9,30.19,South,181,4.0,13.0,78,0.00,,,0.00,11,Wunderground v.1.15,2013-03-14 12:49:00,
2013-03-14 07:55:00,36.6,30.4,30.19,South,180,5.0,13.0,78,0.00,,,0.00,18,Wunderground v.1.15,2013-03-14 12:55:00,
2013-03-14 08:02:00,37.0,30.8,30.19,South,180,5.0,13.0,78,0.00,,,0.00,30,Wunderground v.1.15,2013-03-14 13:02:00,
2013-03-14 08:09:00,37.5,31.3,30.19,South,180,4.0,13.0,78,0.00,,,0.00,35,Wunderground v.1.15,2013-03-14 13:09:00,
2013-03-14 08:15:00,37.7,31.5,30.19,South,179,4.0,13.0,78,0.00,,,0.00,44,Wunderground v.1.15,2013-03-14 13:15:00,
2013-03-14 08:21:00,38.0,31.7,30.19,South,179,5.0,13.0,78,0.00,,,0.00,54,Wunderground v.1.15,2013-03-14 13:21:00,
2013-03-14 08:26:00,38.6,32.3,30.19,South,181,5.0,13.0,78,0.00,,,0.00,56,Wunderground v.1.15,2013-03-14 13:26:00,
2013-03-14 08:32:00,39.4,32.8,30.19,South,187,5.0,13.0,77,0.00,,,0.00,56,Wunderground v.1.15,2013-03-14 13:32:00,
2013-03-14 08:38:00,40.0,33.0,30.18,South,186,6.0,13.0,76,0.00,,,0.00,53,Wunderground v.1.15,2013-03-14 13:38:00,
2013-03-14 08:45:00,40.2,33.2,30.19,South,185,6.0,13.0,76,0.00,,,0.00,60,Wunderground v.1.15,2013-03-14 13:45:00,
2013-03-14 08:51:00,40.6,33.6,30.19,South,189,6.0,13.0,76,0.00,,,0.00,81,Wunderground v.1.15,2013-03-14 13:51:00,
2013-03-14 08:56:00,41.1,33.8,30.19,South,189,6.0,6.0,75,0.00,,,0.00,100,Wunderground v.1.15,2013-03-14 13:56:00,
2013-03-14 09:03:00,41.8,34.5,30.19,SSW,193,6.0,13.0,75,0.00,,,0.00,123,Wunderground v.1.15,2013-03-14 14:03:00,
2013-03-14 09:09:00,42.5,34.8,30.19,South,190,6.0,7.0,74,0.00,,,0.00,171,Wunderground v.1.15,2013-03-14 14:09:00,
2013-03-14 09:14:00,43.5,35.8,30.19,South,191,6.0,13.0,74,0.00,,,0.00,232,Wunderground v.1.15,2013-03-14 14:14:00,
2013-03-14 09:21:00,45.0,36.9,30.18,SSW,210,6.0,13.0,73,0.00,,,0.00,241,Wunderground v.1.15,2013-03-14 14:21:00,
2013-03-14 09:26:00,46.1,36.9,30.18,SSW,199,7.0,13.0,70,0.00,,,0.00,241,Wunderground v.1.15,2013-03-14 14:26:00,
2013-03-14 09:32:00,46.7,37.1,30.18,SSW,210,7.0,13.0,69,0.00,,,0.00,257,Wunderground v.1.15,2013-03-14 14:32:00,
2013-03-14 09:41:00,48.1,38.0,30.18,South,191,6.0,13.0,68,0.00,,,0.00,283,Wunderground v.1.15,2013-03-14 14:41:00,
2013-03-14 09:46:00,49.1,39.0,30.19,SSW,192,5.0,13.0,68,0.00,,,0.00,288,Wunderground v.1.15,2013-03-14 14:46:00,
2013-03-14 09:53:00,50.6,39.3,30.19,SSW,202,5.0,13.0,65,0.00,,,0.00,352,Wunderground v.1.15,2013-03-14 14:53:00,
2013-03-14 09:58:00,51.8,39.6,30.19,SSW,201,6.0,13.0,63,0.00,,,0.00,276,Wunderground v.1.15,2013-03-14 14:58:00,
2013-03-14 10:05:00,52.7,40.0,30.18,SSW,202,7.0,13.0,62,0.00,,,0.00,350,Wunderground v.1.15,2013-03-14 15:05:00,
2013-03-14 10:10:00,53.6,40.0,30.18,SW,224,9.0,14.0,60,0.00,,,0.00,399,Wunderground v.1.15,2013-03-14 15:10:00,
2013-03-14 10:17:00,54.2,39.7,30.18,WSW,242,9.0,9.0,58,0.00,,,0.00,376,Wunderground v.1.15,2013-03-14 15:17:00,
2013-03-14 10:22:00,54.8,40.7,30.18,SSW,202,9.0,13.0,59,0.00,,,0.00,432,Wunderground v.1.15,2013-03-14 15:22:00,
2013-03-14 10:29:00,55.7,41.1,30.18,SSW,208,8.0,13.0,58,0.00,,,0.00,445,Wunderground v.1.15,2013-03-14 15:29:00,
2013-03-14 10:34:00,56.5,41.0,30.18,South,187,7.0,13.0,56,0.00,,,0.00,429,Wunderground v.1.15,2013-03-14 15:34:00,
2013-03-14 10:41:00,56.6,40.6,30.18,SSW,208,8.0,13.0,55,0.00,,,0.00,471,Wunderground v.1.15,2013-03-14 15:41:00,
2013-03-14 10:47:00,57.0,41.0,30.18,SW,218,9.0,13.0,55,0.00,,,0.00,504,Wunderground v.1.15,2013-03-14 15:47:00,
2013-03-14 10:52:00,57.5,41.4,30.18,SW,214,9.0,14.0,55,0.00,,,0.00,504,Wunderground v.1.15,2013-03-14 15:52:00,
2013-03-14 10:59:00,58.0,41.4,30.17,SW,216,10.0,13.0,54,0.00,,,0.00,503,Wunderground v.1.15,2013-03-14 15:59:00,
2013-03-14 11:04:00,58.4,41.8,30.17,SW,229,10.0,13.0,54,0.00,,,0.00,485,Wunderground v.1.15,2013-03-14 16:04:00,
2013-03-14 11:11:00,58.8,42.2,30.17,SSW,210,8.0,13.0,54,0.00,,,0.00,482,Wunderground v.1.15,2013-03-14 16:11:00,
2013-03-14 11:17:00,59.4,43.2,30.17,SSW,206,9.0,9.0,55,0.00,,,0.00,633,Wunderground v.1.15,2013-03-14 16:17:00,
2013-03-14 11:22:00,60.3,42.6,30.18,South,172,10.0,13.0,52,0.00,,,0.00,631,Wunderground v.1.15,2013-03-14 16:22:00,
2013-03-14 11:29:00,61.0,42.2,30.17,SW,214,9.0,13.0,50,0.00,,,0.00,619,Wunderground v.1.15,2013-03-14 16:29:00,
2013-03-14 11:34:00,61.6,43.8,30.17,SSW,208,7.0,13.0,52,0.00,,,0.00,686,Wunderground v.1.15,2013-03-14 16:34:00,
2013-03-14 11:40:00,62.4,44.0,30.17,SSW,200,8.0,13.0,51,0.00,,,0.00,671,Wunderground v.1.15,2013-03-14 16:40:00,
2013-03-14 11:48:00,62.8,41.7,30.17,SW,224,8.0,13.0,46,0.00,,,0.00,624,Wunderground v.1.15,2013-03-14 16:48:00,
2013-03-14 11:54:00,62.7,43.8,30.17,SSW,213,7.0,13.0,50,0.00,,,0.00,487,Wunderground v.1.15,2013-03-14 16:54:00,
2013-03-14 12:01:00,63.1,43.1,30.17,SW,223,7.0,13.0,48,0.00,,,0.00,533,Wunderground v.1.15,2013-03-14 17:01:00,
2013-03-14 12:06:00,63.0,42.4,30.17,WSW,247,7.0,13.0,47,0.00,,,0.00,527,Wunderground v.1.15,2013-03-14 17:06:00,
2013-03-14 12:13:00,63.2,43.2,30.17,SSW,210,8.0,13.0,48,0.00,,,0.00,621,Wunderground v.1.15,2013-03-14 17:13:00,
2013-03-14 12:19:00,64.3,43.1,30.16,WSW,237,6.0,9.0,46,0.00,,,0.00,707,Wunderground v.1.15,2013-03-14 17:19:00,
2013-03-14 12:24:00,65.1,43.2,30.16,SW,216,7.0,13.0,45,0.00,,,0.00,759,Wunderground v.1.15,2013-03-14 17:24:00,
2013-03-14 12:30:00,65.7,43.2,30.16,SW,218,7.0,13.0,44,0.00,,,0.00,810,Wunderground v.1.15,2013-03-14 17:30:00,
2013-03-14 12:37:00,65.8,43.3,30.16,SW,214,6.0,13.0,44,0.00,,,0.00,566,Wunderground v.1.15,2013-03-14 17:37:00,
2013-03-14 12:42:00,64.8,42.4,30.16,SW,229,7.0,13.0,44,0.00,,,0.00,408,Wunderground v.1.15,2013-03-14 17:42:00,
2013-03-14 12:49:00,64.7,44.0,30.15,SSW,204,7.0,8.0,47,0.00,,,0.00,492,Wunderground v.1.15,2013-03-14 17:49:00,
2013-03-14 12:54:00,65.1,44.9,30.15,SW,219,6.0,13.0,48,0.00,,,0.00,466,Wunderground v.1.15,2013-03-14 17:54:00,
2013-03-14 13:00:00,65.2,43.3,30.15,SSW,208,7.0,13.0,45,0.00,,,0.00,420,Wunderground v.1.15,2013-03-14 18:00:00,
2013-03-14 13:06:00,66.1,44.7,30.15,SW,228,7.0,13.0,46,0.00,,,0.00,754,Wunderground v.1.15,2013-03-14 18:06:00,
2013-03-14 13:13:00,67.0,44.9,30.15,SSW,204,8.0,13.0,45,0.00,,,0.00,510,Wunderground v.1.15,2013-03-14 18:13:00,
2013-03-14 13:19:00,66.4,43.8,30.15,SSW,212,9.0,13.0,44,0.00,,,0.00,640,Wunderground v.1.15,2013-03-14 18:19:00,
2013-03-14 13:24:00,67.6,45.5,30.15,SW,220,7.0,13.0,45,0.00,,,0.00,837,Wunderground v.1.15,2013-03-14 18:24:00,
2013-03-14 13:30:00,68.9,46.7,30.14,South,187,8.0,13.0,45,0.00,,,0.00,919,Wunderground v.1.15,2013-03-14 18:30:00,
2013-03-14 13:36:00,69.7,45.6,30.14,SSW,203,10.0,10.0,42,0.00,,,0.00,919,Wunderground v.1.15,2013-03-14 18:36:00,
2013-03-14 13:43:00,68.4,43.1,30.13,WSW,247,7.0,13.0,40,0.00,,,0.00,251,Wunderground v.1.15,2013-03-14 18:43:00,
2013-03-14 13:48:00,69.2,44.5,30.13,WSW,241,6.0,13.0,41,0.00,,,0.00,877,Wunderground v.1.15,2013-03-14 18:48:00,
2013-03-14 13:55:00,70.1,45.3,30.13,SW,231,7.0,13.0,41,0.00,,,0.00,874,Wunderground v.1.15,2013-03-14 18:55:00,
2013-03-14 14:00:00,71.1,44.2,30.12,SSW,204,7.0,13.0,38,0.00,,,0.00,904,Wunderground v.1.15,2013-03-14 19:00:00,
2013-03-14 14:06:00,69.4,43.4,30.13,SW,234,7.0,13.0,39,0.00,,,0.00,424,Wunderground v.1.15,2013-03-14 19:06:00,
2013-03-14 14:13:00,69.4,45.9,30.13,SSW,211,6.0,13.0,43,0.00,,,0.00,594,Wunderground v.1.15,2013-03-14 19:13:00,
2013-03-14 14:19:00,70.2,44.7,30.13,SW,228,6.0,8.0,40,0.00,,,0.00,765,Wunderground v.1.15,2013-03-14 19:19:00,
2013-03-14 14:24:00,71.6,46.0,30.13,WSW,245,6.0,13.0,40,0.00,,,0.00,796,Wunderground v.1.15,2013-03-14 19:24:00,
2013-03-14 14:30:00,72.4,45.4,30.13,WSW,243,6.0,13.0,38,0.00,,,0.00,809,Wunderground v.1.15,2013-03-14 19:30:00,
2013-03-14 14:36:00,72.3,44.6,30.13,WSW,257,7.0,13.0,37,0.00,,,0.00,817,Wunderground v.1.15,2013-03-14 19:36:00,
2013-03-14 14:42:00,72.9,44.4,30.13,SW,226,6.0,13.0,36,0.00,,,0.00,802,Wunderground v.1.15,2013-03-14 19:42:00,
2013-03-14 14:48:00,72.7,43.5,30.13,West,270,6.0,13.0,35,0.00,,,0.00,779,Wunderground v.1.15,2013-03-14 19:48:00,
2013-03-14 14:55:00,73.1,43.8,30.13,SW,229,5.0,13.0,35,0.00,,,0.00,765,Wunderground v.1.15,2013-03-14 19:55:00,
2013-03-14 15:00:00,73.1,44.5,30.13,SW,216,5.0,13.0,36,0.00,,,0.00,752,Wunderground v.1.15,2013-03-14 20:00:00,
2013-03-14 15:07:00,72.9,45.8,30.12,SSW,212,6.0,6.0,38,0.00,,,0.00,744,Wunderground v.1.15,2013-03-14 20:07:00,
2013-03-14 15:12:00,73.6,47.1,30.12,SSW,205,5.0,13.0,39,0.00,,,0.00,731,Wunderground v.1.15,2013-03-14 20:12:00,
2013-03-14 15:18:00,73.9,45.3,30.11,WSW,247,5.0,13.0,36,0.00,,,0.00,722,Wunderground v.1.15,2013-03-14 20:18:00,
2013-03-14 15:25:00,74.0,46.8,30.11,SW,235,4.0,13.0,38,0.00,,,0.00,714,Wunderground v.1.15,2013-03-14 20:25:00,
2013-03-14 15:31:00,74.1,46.2,30.11,WSW,239,5.0,13.0,37,0.00,,,0.00,701,Wunderground v.1.15,2013-03-14 20:31:00,
2013-03-14 15:37:00,74.6,45.9,30.10,SW,231,4.0,13.0,36,0.00,,,0.00,693,Wunderground v.1.15,2013-03-14 20:37:00,
2013-03-14 15:42:00,74.5,44.3,30.10,West,264,4.0,13.0,34,0.00,,,0.00,682,Wunderground v.1.15,2013-03-14 20:42:00,
2013-03-14 15:48:00,74.7,48.1,30.10,SSW,212,4.0,13.0,39,0.00,,,0.00,668,Wunderground v.1.15,2013-03-14 20:48:00,
2013-03-14 15:55:00,75.5,47.4,30.10,South,185,5.0,13.0,37,0.00,,,0.00,657,Wunderground v.1.15,2013-03-14 20:55:00,
2013-03-14 16:01:00,75.4,48.0,30.10,SSW,205,6.0,13.0,38,0.00,,,0.00,643,Wunderground v.1.15,2013-03-14 21:01:00,
2013-03-14 16:07:00,75.9,48.5,30.10,SSW,199,5.0,5.0,38,0.00,,,0.00,631,Wunderground v.1.15,2013-03-14 21:07:00,
2013-03-14 16:13:00,76.2,47.3,30.09,SW,227,5.0,13.0,36,0.00,,,0.00,615,Wunderground v.1.15,2013-03-14 21:13:00,
2013-03-14 16:18:00,76.3,48.1,30.09,SW,214,4.0,13.0,37,0.00,,,0.00,601,Wunderground v.1.15,2013-03-14 21:18:00,
2013-03-14 16:25:00,76.4,46.7,30.09,SSW,197,5.0,13.0,35,0.00,,,0.00,584,Wunderground v.1.15,2013-03-14 21:25:00,
2013-03-14 16:30:00,76.3,48.8,30.09,SSW,200,4.0,13.0,38,0.00,,,0.00,571,Wunderground v.1.15,2013-03-14 21:30:00,
2013-03-14 16:36:00,76.5,47.6,30.09,SSW,202,4.0,13.0,36,0.00,,,0.00,554,Wunderground v.1.15,2013-03-14 21:36:00,
2013-03-14 16:42:00,76.3,47.4,30.09,SSW,205,4.0,13.0,36,0.00,,,0.00,534,Wunderground v.1.15,2013-03-14 21:42:00,
2013-03-14 16:49:00,76.6,49.1,30.09,South,189,5.0,13.0,38,0.00,,,0.00,517,Wunderground v.1.15,2013-03-14 21:49:00,
2013-03-14 16:54:00,76.7,47.0,30.09,SSW,201,5.0,13.0,35,0.00,,,0.00,501,Wunderground v.1.15,2013-03-14 21:54:00,
2013-03-14 17:01:00,76.8,49.3,30.09,SSW,196,5.0,13.0,38,0.00,,,0.00,482,Wunderground v.1.15,2013-03-14 22:01:00,
2013-03-14 17:06:00,76.7,47.0,30.09,SSW,200,5.0,13.0,35,0.00,,,0.00,466,Wunderground v.1.15,2013-03-14 22:06:00,
2013-03-14 17:13:00,76.5,49.0,30.08,SSW,197,5.0,13.0,38,0.00,,,0.00,448,Wunderground v.1.15,2013-03-14 22:13:00,
2013-03-14 17:19:00,76.6,48.4,30.08,SSW,193,6.0,13.0,37,0.00,,,0.00,429,Wunderground v.1.15,2013-03-14 22:19:00,
2013-03-14 17:24:00,76.5,48.3,30.08,SSW,206,6.0,13.0,37,0.00,,,0.00,408,Wunderground v.1.15,2013-03-14 22:24:00,
2013-03-14 17:32:00,76.3,48.8,30.08,SSW,195,5.0,13.0,38,0.00,,,0.00,388,Wunderground v.1.15,2013-03-14 22:32:00,
2013-03-14 17:38:00,76.1,48.6,30.07,SSW,197,5.0,13.0,38,0.00,,,0.00,367,Wunderground v.1.15,2013-03-14 22:38:00,
2013-03-14 17:45:00,75.9,47.8,30.07,SSW,202,6.0,13.0,37,0.00,,,0.00,348,Wunderground v.1.15,2013-03-14 22:45:00,
2013-03-14 17:51:00,75.7,49.0,30.07,SSW,202,6.0,13.0,39,0.00,,,0.00,320,Wunderground v.1.15,2013-03-14 22:51:00,
2013-03-14 17:59:00,75.4,48.7,30.07,SSW,204,5.0,13.0,39,0.00,,,0.00,297,Wunderground v.1.15,2013-03-14 22:59:00,
2013-03-14 18:04:00,74.7,48.1,30.07,SSW,202,4.0,13.0,39,0.00,,,0.00,274,Wunderground v.1.15,2013-03-14 23:04:00,
2013-03-14 18:10:00,74.2,48.3,30.07,SSW,201,5.0,13.0,40,0.00,,,0.00,253,Wunderground v.1.15,2013-03-14 23:10:00,
2013-03-14 18:17:00,73.7,49.8,30.06,SSW,200,4.0,13.0,43,0.00,,,0.00,232,Wunderground v.1.15,2013-03-14 23:17:00,
2013-03-14 18:22:00,73.0,51.0,30.06,SSW,200,4.0,13.0,46,0.00,,,0.00,206,Wunderground v.1.15,2013-03-14 23:22:00,
2013-03-14 18:28:00,72.6,50.0,30.06,SSW,195,4.0,13.0,45,0.00,,,0.00,188,Wunderground v.1.15,2013-03-14 23:28:00,
2013-03-14 18:35:00,71.9,50.6,30.06,SSW,195,4.0,13.0,47,0.00,,,0.00,142,Wunderground v.1.15,2013-03-14 23:35:00,
2013-03-14 18:40:00,71.2,49.9,30.06,SSW,195,4.0,13.0,47,0.00,,,0.00,128,Wunderground v.1.15,2013-03-14 23:40:00,
2013-03-14 18:47:00,70.6,50.0,30.06,SSW,194,3.0,3.0,48,0.00,,,0.00,91,Wunderground v.1.15,2013-03-14 23:47:00,
2013-03-14 18:53:00,69.5,50.6,30.06,SSW,194,3.0,13.0,51,0.00,,,0.00,86,Wunderground v.1.15,2013-03-14 23:53:00,
2013-03-14 18:59:00,68.3,50.5,30.07,SSW,194,3.0,13.0,53,0.00,,,0.00,69,Wunderground v.1.15,2013-03-14 23:59:00,
2013-03-14 19:05:00,68.1,50.8,30.07,SSW,194,2.0,13.0,54,0.00,,,0.00,46,Wunderground v.1.15,2013-03-15 00:05:00,
2013-03-14 19:10:00,68.0,49.7,30.07,SSW,194,2.0,13.0,52,0.00,,,0.00,35,Wunderground v.1.15,2013-03-15 00:10:00,
2013-03-14 19:17:00,67.8,49.5,30.08,SSW,194,1.0,1.0,52,0.00,,,0.00,26,Wunderground v.1.15,2013-03-15 00:17:00,
2013-03-14 19:22:00,67.0,49.8,30.08,SSW,194,1.0,13.0,54,0.00,,,0.00,18,Wunderground v.1.15,2013-03-15 00:22:00,
2013-03-14 19:29:00,66.4,49.2,30.08,SSW,194,1.0,13.0,54,0.00,,,0.00,9,Wunderground v.1.15,2013-03-15 00:29:00,
2013-03-14 19:34:00,65.7,49.1,30.08,SSW,194,0.0,13.0,55,0.00,,,0.00,5,Wunderground v.1.15,2013-03-15 00:34:00,
2013-03-14 19:40:00,64.2,48.6,30.09,SSW,194,0.0,13.0,57,0.00,,,0.00,0,Wunderground v.1.15,2013-03-15 00:40:00,
2013-03-14 19:47:00,63.2,48.6,30.09,SSW,194,0.0,13.0,59,0.00,,,0.00,0,Wunderground v.1.15,2013-03-15 00:47:00,
2013-03-14 19:52:00,63.1,48.5,30.09,SSW,194,0.0,13.0,59,0.00,,,0.00,0,Wunderground v.1.15,2013-03-15 00:52:00,
2013-03-14 19:59:00,61.9,47.9,30.10,SSW,194,0.0,13.0,60,0.00,,,0.00,0,Wunderground v.1.15,2013-03-15 00:59:00,
2013-03-14 20:04:00,60.9,47.8,30.10,NW,312,3.0,13.0,62,0.00,,,0.00,0,Wunderground v.1.15,2013-03-15 01:04:00,
2013-03-14 20:11:00,62.1,48.5,30.09,NW,312,5.0,13.0,61,0.00,,,0.00,0,Wunderground v.1.15,2013-03-15 01:11:00,
2013-03-14 20:16:00,62.7,48.2,30.09,NW,312,4.0,4.0,59,0.00,,,0.00,0,Wunderground v.1.15,2013-03-15 01:16:00,
2013-03-14 20:23:00,62.4,47.9,30.09,NW,312,4.0,13.0,59,0.00,,,0.00,0,Wunderground v.1.15,2013-03-15 01:23:00,
2013-03-14 20:28:00,62.0,48.0,30.09,NW,312,5.0,5.0,60,0.00,,,0.00,0,Wunderground v.1.15,2013-03-15 01:28:00,
2013-03-14 20:34:00,62.1,47.6,30.09,NW,319,5.0,13.0,59,0.00,,,0.00,0,Wunderground v.1.15,2013-03-15 01:34:00,
2013-03-14 20:41:00,61.8,45.5,30.09,NW,320,6.0,13.0,55,0.00,,,0.00,0,Wunderground v.1.15,2013-03-15 01:41:00,
2013-03-14 20:46:00,61.8,45.0,30.09,NNW,328,6.0,13.0,54,0.00,,,0.00,0,Wunderground v.1.15,2013-03-15 01:46:00,
2013-03-14 20:52:00,61.0,44.7,30.09,NNW,333,6.0,13.0,55,0.00,,,0.00,0,Wunderground v.1.15,2013-03-15 01:52:00,
2013-03-14 20:58:00,61.5,44.2,30.09,NNW,336,6.0,13.0,53,0.00,,,0.00,0,Wunderground v.1.15,2013-03-15 01:58:00,
2013-03-14 21:04:00,61.3,44.0,30.09,NNW,337,6.0,13.0,53,0.00,,,0.00,0,Wunderground v.1.15,2013-03-15 02:04:00,
2013-03-14 21:10:00,59.3,43.1,30.10,NNW,337,5.0,13.0,55,0.00,,,0.00,0,Wunderground v.1.15,2013-03-15 02:10:00,
2013-03-14 21:17:00,56.8,43.1,30.09,NNW,337,5.0,5.0,60,0.00,,,0.00,0,Wunderground v.1.15,2013-03-15 02:17:00,
2013-03-14 21:22:00,55.1,42.7,30.09,NNW,337,5.0,13.0,63,0.00,,,0.00,0,Wunderground v.1.15,2013-03-15 02:22:00,
2013-03-14 21:29:00,54.1,42.6,30.09,NNW,337,3.0,13.0,65,0.00,,,0.00,0,Wunderground v.1.15,2013-03-15 02:29:00,
2013-03-14 21:34:00,54.5,43.4,30.09,NNW,337,4.0,13.0,66,0.00,,,0.00,0,Wunderground v.1.15,2013-03-15 02:34:00,
2013-03-14 21:40:00,55.7,43.3,30.10,NNW,337,5.0,13.0,63,0.00,,,0.00,0,Wunderground v.1.15,2013-03-15 02:40:00,
2013-03-14 21:47:00,56.7,43.4,30.10,NNW,337,4.0,13.0,61,0.00,,,0.00,0,Wunderground v.1.15,2013-03-15 02:47:00,
2013-03-14 21:52:00,56.6,43.3,30.10,NNW,337,4.0,13.0,61,0.00,,,0.00,0,Wunderground v.1.15,2013-03-15 02:52:00,
2013-03-14 21:58:00,57.3,43.5,30.10,NNW,337,4.0,13.0,60,0.00,,,0.00,0,Wunderground v.1.15,2013-03-15 02:58:00,
2013-03-14 22:05:00,57.2,43.0,30.10,NNW,337,4.0,13.0,59,0.00,,,0.00,0,Wunderground v.1.15,2013-03-15 03:05:00,
2013-03-14 22:10:00,56.2,42.9,30.10,NNW,337,4.0,13.0,61,0.00,,,0.00,0,Wunderground v.1.15,2013-03-15 03:10:00,
2013-03-14 22:17:00,56.4,43.1,30.10,NNW,337,4.0,4.0,61,0.00,,,0.00,0,Wunderground v.1.15,2013-03-15 03:17:00,
2013-03-14 22:22:00,57.5,43.3,30.10,NNW,337,4.0,13.0,59,0.00,,,0.00,0,Wunderground v.1.15,2013-03-15 03:22:00,
2013-03-14 22:29:00,58.6,43.4,30.10,NNW,337,3.0,13.0,57,0.00,,,0.00,0,Wunderground v.1.15,2013-03-15 03:29:00,
2013-03-14 22:34:00,58.7,43.0,30.11,NNW,337,3.0,13.0,56,0.00,,,0.00,0,Wunderground v.1.15,2013-03-15 03:34:00,
2013-03-14 22:40:00,58.0,42.8,30.10,NNW,337,3.0,13.0,57,0.00,,,0.00,0,Wunderground v.1.15,2013-03-15 03:40:00,
2013-03-14 22:47:00,57.1,42.9,30.11,NNW,337,4.0,4.0,59,0.00,,,0.00,0,Wunderground v.1.15,2013-03-15 03:47:00,
2013-03-14 22:52:00,56.8,42.6,30.10,NNW,337,3.0,13.0,59,0.00,,,0.00,0,Wunderground v.1.15,2013-03-15 03:52:00,
2013-03-14 22:58:00,56.2,42.5,30.10,NNW,337,2.0,13.0,60,0.00,,,0.00,0,Wunderground v.1.15,2013-03-15 03:58:00,
2013-03-14 23:00:00,56.1,42.4,30.10,NNW,337,3.0,13.0,60,0.00,,,0.00,0,Wunderground v.1.15,2013-03-15 04:00:00,
2013-03-14 23:02:00,56.1,42.8,30.10,NNW,337,3.0,13.0,61,0.00,,,0.00,0,Wunderground v.1.15,2013-03-15 04:02:00,
2013-03-14 23:09:00,55.7,42.5,30.10,NNW,337,2.0,13.0,61,0.00,,,0.00,0,Wunderground v.1.15,2013-03-15 04:09:00,
2013-03-14 23:15:00,55.1,42.3,30.10,NNW,337,1.0,13.0,62,0.00,,,0.00,0,Wunderground v.1.15,2013-03-15 04:15:00,
2013-03-14 23:16:00,54.7,41.9,30.10,NNW,337,1.0,13.0,62,0.00,,,0.00,0,Wunderground v.1.15,2013-03-15 04:16:00,
2013-03-14 23:18:00,54.5,42.2,30.10,NNW,337,2.0,13.0,63,0.00,,,0.00,0,Wunderground v.1.15,2013-03-15 04:18:00,
2013-03-14 23:25:00,54.0,42.5,30.10,NNW,337,2.0,13.0,65,0.00,,,0.00,0,Wunderground v.1.15,2013-03-15 04:25:00,
2013-03-14 23:30:00,54.5,42.6,30.10,NNW,337,3.0,13.0,64,0.00,,,0.00,0,Wunderground v.1.15,2013-03-15 04:30:00,
2013-03-14 23:37:00,54.8,42.4,30.09,NNW,337,3.0,13.0,63,0.00,,,0.00,0,Wunderground v.1.15,2013-03-15 04:37:00,
2013-03-14 23:42:00,54.9,42.1,30.09,NNW,337,3.0,13.0,62,0.00,,,0.00,0,Wunderground v.1.15,2013-03-15 04:42:00,
2013-03-14 23:48:00,54.3,42.0,30.09,NNW,337,3.0,13.0,63,0.00,,,0.00,0,Wunderground v.1.15,2013-03-15 04:48:00,
2013-03-14 23:55:00,53.1,41.6,30.09,NNW,337,2.0,13.0,65,0.00,,,0.00,0,Wunderground v.1.15,2013-03-15 04:55:00,